CAPE
3008 3083 3046 3026 2951 2528 2188 1875 1800 1642 1591 1577 1642 1684 1494 822 492 482 553 382 455 574 730 644 601 528 456 514 445 505 780 668 802 825 822 785 888 804 594 968 788 707 813 746 959 886 846 791 691 718 842 747 595 444 387 554 762 512 403 322 217 100 108 87 40 32 16 47 34 0 0 2 2 9 10 16 26 43 52 108 120 100 93 82 51
3111 3166 3168 3009 2847 2489 2082 1878 1717 1579 1548 1613 1696 1740 1544 908 601 590 344 361 304 284 444 394 522 563 473 605 682 719 780 876 732 682 713 689 698 780 724 863 901 785 980 894 908 1075 1019 876 810 878 1087 1085 664 533 388 336 366 438 319 270 174 160 201 134 52 50 31 40 96 62 22 9 2 65 54 48 79 73 84 105 116 164 201 152 66
3123 3261 3189 2922 2738 2422 1946 1806 1611 1475 1549 1704 1766 1744 1560 971 422 356 296 211 250 223 198 243 483 486 411 465 620 675 839 844 782 670 635 706 730 732 673 692 794 782 806 814 748 838 942 937 816 777 911 925 852 662 484 486 404 373 401 403 368 296 258 244 166 100 51 58 45 58 73 41 26 61 120 109 119 111 48 87 164 192 159 156 99
3056 3253 3140 2845 2614 2241 1914 1770 1578 1488 1527 1726 1816 1768 1564 967 288 337 218 56 0 46 268 250 262 251 290 417 421 517 632 762 738 681 688 678 652 702 796 788 684 677 669 694 728 846 857 862 787 708 844 942 921 846 728 628 644 730 704 770 688 591 536 515 168 80 76 42 44 55 182 171 60 57 96 130 78 83 117 189 145 170 164 138 156
3050 3095 3047 2741 2388 2059 1869 1696 1560 1462 1496 1554 1760 1744 1533 964 148 208 101 88 8 28 104 59 126 113 135 238 335 397 495 543 580 529 529 589 648 620 672 711 671 730 834 868 852 919 914 866 734 865 1019 1024 966 910 841 958 973 828 690 788 748 748 661 596 648 592 260 60 57 54 72 173 138 108 160 185 173 214 190 214 227 228 222 170 140
3022 3037 2884 2592 2213 1987 1820 1638 1488 1415 1348 1502 1688 1733 1482 1020 250 188 120 54 17 22 134 49 48 36 41 114 244 400 547 538 572 589 557 615 619 524 504 636 730 977 1084 1022 989 1052 984 904 900 976 998 919 785 774 977 1075 1106 1046 981 893 818 735 776 736 802 732 498 168 148 54 63 124 140 124 222 213 84 95 123 144 164 142 128 126 68
3096 2973 2770 2414 2153 2046 1864 1624 1425 1308 1170 1388 1614 1728 1602 913 219 140 90 28 5 3 48 54 85 15 76 121 157 292 361 379 550 655 658 662 643 633 640 857 1084 1243 1173 885 704 859 909 927 994 1020 1025 1049 990 947 962 1119 1162 1124 1058 1055 916 864 879 836 801 850 674 364 226 126 136 206 176 116 140 189 148 114 68 42 42 94 137 110 66
3135 2968 2672 2338 2169 2085 1931 1697 1446 1254 1170 1188 1493 1669 1635 1088 353 320 162 27 38 10 38 48 38 46 32 180 243 255 318 366 553 677 672 624 628 702 852 1024 1122 1137 1064 933 836 748 889 850 627 883 1056 1130 1194 1143 1149 1126 1136 1163 1149 1240 1162 1084 995 905 904 753 672 564 428 304 234 211 165 174 121 103 90 96 130 94 87 156 164 141 125
3144 2956 2636 2346 2202 2093 1976 1782 1557 1216 1071 1111 1324 1440 1473 944 353 313 134 3 17 10 6 44 25 48 133 158 171 208 267 370 562 656 592 568 684 780 980 1126 1090 989 900 842 971 1067 1012 902 798 931 1120 1209 845 630 659 679 974 1063 1235 1272 1226 1165 984 853 785 762 676 500 488 472 294 170 220 186 127 172 178 131 113 166 196 225 228 170 127
3202 2894 2599 2418 2251 2108 2027 1902 1700 1426 1070 866 996 1056 1211 1197 679 184 5 73 242 89 71 70 26 129 184 140 154 218 335 469 319 9 95 641 1033 1025 1102 1115 1008 846 926 939 904 991 945 889 948 871 659 441 279 172 146 187 240 370 670 762 796 939 928 702 636 646 554 408 438 560 331 118 173 241 145 153 169 161 153 181 192 179 150 133 79
3216 2862 2609 2412 2179 2116 2077 2019 1947 1798 1563 1208 866 870 1217 521 632 453 222 0 147 128 124 96 45 46 63 96 158 249 332 438 65 0 0 1 508 979 997 1011 899 938 930 1027 1026 950 1008 1205 1220 1239 998 566 447 132 126 147 167 162 143 127 96 344 285 360 601 688 543 438 419 601 560 269 298 297 270 148 105 123 160 144 127 130 116 81 71
3011 2836 2604 2347 2097 2095 2083 2061 2002 1928 1784 1650 1429 1298 1160 899 577 432 230 208 242 205 160 106 154 95 122 81 87 184 375 196 2 0 0 0 64 674 868 913 1055 1108 1093 1067 1149 1092 1062 999 1056 1294 1280 1125 1037 838 636 297 13 0 0 0 0 1 13 202 506 552 532 340 344 456 655 298 446 452 292 180 178 194 207 126 98 86 72 57 41
2969 2803 2499 2224 2006 2018 2008 1996 1969 1886 1784 1666 1605 1538 1169 932 558 224 196 397 436 290 28 207 227 105 112 178 179 182 260 258 0 0 0 0 0 146 846 1214 1203 1203 1242 1314 1301 1312 1280 1187 1110 1179 1298 625 307 504 664 598 378 1 0 0 5 27 42 45 67 115 378 320 352 204 363 648 673 432 297 266 182 124 114 66 44 40 45 12 3
2874 2705 2435 2118 1908 1887 1884 1895 1889 1835 1743 1683 1638 1630 1624 1281 930 628 694 653 629 383 296 300 150 127 121 166 205 238 348 337 2 0 0 0 0 47 722 1101 1106 1088 1170 1271 1261 1187 1160 1172 1250 1070 861 801 752 611 461 394 338 249 308 371 326 199 102 46 57 54 73 113 264 415 517 594 504 308 183 204 135 56 18 12 6 4 2 3 2
2678 2552 2256 1982 1759 1777 1804 1795 1796 1770 1723 1668 1589 1540 1574 1100 1191 1031 696 509 548 321 288 173 244 240 248 263 308 403 412 268 2 0 54 0 0 9 600 942 1073 1128 1096 979 1077 984 1140 1030 789 509 474 481 403 370 305 214 151 109 140 265 306 223 243 379 391 362 280 168 146 178 248 202 157 124 100 60 42 0 2 4 3 3 3 4 6
2532 2296 2076 1727 1662 1698 1716 1727 1706 1717 1671 1586 1478 1460 1423 1157 1019 759 536 358 294 280 174 276 314 285 384 411 301 392 425 87 194 385 336 198 0 241 777 1095 1080 1025 1061 1054 1007 1010 701 512 369 404 369 400 242 0 3 30 4 47 187 302 301 253 216 124 43 3 34 105 101 46 26 5 0 0 0 0 0 0 2 2 2 4 4 6 5
2358 2090 1822 1558 1545 1562 1592 1605 1625 1620 1588 1497 1412 1368 1344 1378 975 706 442 361 278 201 182 260 321 304 342 476 508 567 752 593 353 388 376 350 70 636 1002 947 1052 1006 890 926 651 373 311 230 251 279 325 333 65 0 0 0 0 49 157 192 143 107 78 185 99 0 0 0 0 0 0 0 0 0 0 0 0 1 3 1 1 0 6 6 4
2155 1874 1680 1409 1412 1433 1437 1458 1492 1498 1515 1474 1386 1314 1292 1136 713 464 375 165 1 41 181 296 402 478 487 579 555 759 892 876 369 357 438 477 378 946 1065 1046 728 674 586 594 354 299 242 7 65 250 176 209 0 0 0 0 0 10 13 12 56 66 105 171 70 33 0 0 0 0 0 0 0 0 0 0 0 0 5 1 0 5 9 8 7
1875 1676 1557 1312 1305 1308 1323 1365 1396 1417 1450 1414 1319 1214 1159 900 580 235 106 139 62 195 240 310 499 636 588 542 451 509 831 880 452 416 512 587 520 574 727 279 322 395 454 487 225 344 390 128 8 11 27 103 0 0 0 0 0 0 3 26 68 98 150 66 9 18 20 4 6 0 51 0 3 6 11 0 0 0 0 3 6 12 6 6 6
1666 1508 1315 1261 1267 1266 1282 1302 1332 1358 1350 1337 1242 1088 933 707 407 106 114 144 203 331 427 453 613 691 676 654 610 628 714 1271 496 593 634 680 566 380 259 111 218 286 272 260 499 526 402 284 0 0 0 0 0 0 1 0 0 1 2 6 16 167 44 1 2 1 0 0 0 0 0 0 0 0 0 0 0 3 2 1 0 4 12 10 9
1359 1285 1224 1237 1228 1220 1228 1222 1267 1264 1245 1213 1148 870 680 388 106 113 152 198 331 567 708 811 780 977 979 910 867 914 1059 1111 648 603 666 722 637 442 35 157 203 229 523 288 176 252 269 198 98 1 0 0 0 0 0 0 0 0 0 2 2 0 0 0 2 0 0 0 0 0 0 0 0 0 0 0 0 0 0 0 0 0 3 7 6
1212 1141 1163 1142 1184 1170 1163 1197 1176 1186 1153 1107 1092 726 406 250 186 222 228 374 556 678 946 1200 1228 1199 1264 1006 984 848 433 550 633 759 641 376 406 477 332 59 138 311 224 253 200 110 198 101 63 5 0 0 0 0 0 0 0 0 0 0 0 0 0 0 0 0 0 0 0 0 0 0 0 0 0 0 0 0 0 0 0 0 1 3 4
1116 1124 1161 1192 1173 1131 1102 1102 1122 1133 1122 1142 983 713 397 292 325 445 500 554 677 986 1257 1265 1184 1212 944 835 702 572 637 398 400 410 584 698 643 574 307 39 119 25 64 188 210 111 50 8 9 0 0 0 0 0 0 0 0 0 0 0 0 0 0 0 0 0 0 0 0 0 0 0 0 0 0 0 0 0 0 0 0 0 1 3 4
1194 1206 1170 1179 1123 1086 1058 1033 1044 1032 1054 1060 1002 819 531 332 478 660 807 968 1187 1296 1351 1171 892 900 868 895 939 650 368 0 0 242 348 440 462 404 288 182 4 0 21 60 47 4 9 8 0 0 0 0 0 0 0 0 0 0 0 0 0 0 0 0 0 0 0 0 0 0 0 0 0 0 0 0 0 0 0 0 0 0 0 1 2
1243 1202 1181 1155 1092 1032 978 964 980 967 966 943 903 760 632 473 587 871 1096 1133 1340 1502 1365 1192 1220 1258 1058 839 893 764 550 356 153 50 71 226 168 44 0 0 0 0 0 3 0 0 0 0 0 0 0 0 0 0 0 0 0 0 0 0 0 0 0 0 0 0 0 0 0 0 0 0 0 0 0 0 0 0 0 0 0 0 0 2 2
1234 1203 1164 1115 1048 955 900 869 864 852 825 788 786 770 708 505 548 836 858 998 1063 1134 1305 1245 1264 1111 958 905 803 735 468 296 102 0 0 0 0 0 0 0 0 0 0 0 0 0 0 0 0 0 0 0 0 1 3 0 0 0 0 0 0 0 0 0 0 0 0 0 0 0 0 0 0 0 0 0 1 0 0 0 0 0 0 2 2
1175 1142 1100 1086 1040 950 851 810 785 764 748 751 770 779 736 596 522 629 758 916 1095 1190 1142 968 657 906 983 889 802 564 272 184 0 2 0 0 0 0 0 0 0 0 0 0 0 0 0 0 0 0 0 0 0 0 0 0 0 0 0 0 0 0 0 0 0 0 0 0 0 0 0 0 0 0 0 0 0 0 0 2 0 0 1 2 3
981 959 975 991 1000 964 876 768 730 726 697 714 775 788 795 736 604 796 830 1008 1133 1160 964 742 760 944 931 788 768 383 64 2 2 18 0 0 50 130 92 0 0 0 0 0 0 0 0 0 0 0 0 0 0 0 0 0 0 0 0 0 0 0 0 0 0 0 0 0 0 0 0 0 0 0 0 0 0 0 0 0 0 1 2 3 2
836 858 777 803 858 876 857 810 773 903 948 716 746 700 771 784 882 650 458 758 976 974 887 735 777 782 852 866 891 740 517 226 88 2 7 127 159 113 42 1 0 0 0 0 0 0 1 1 0 0 0 0 0 0 0 0 0 0 0 0 0 0 0 0 0 0 0 0 0 0 0 0 0 0 0 0 0 0 0 0 0 2 2 3 4
927 940 877 851 779 740 741 856 764 749 710 589 589 626 699 791 827 770 718 638 517 559 635 852 658 692 613 707 633 555 492 514 0 0 136 140 116 18 0 0 0 0 0 0 0 0 0 0 0 0 0 0 0 0 0 0 0 0 0 0 0 0 0 0 0 0 0 0 0 0 0 0 0 0 0 0 0 0 0 0 0 0 1 2 2
782 743 698 666 689 766 660 720 765 768 621 70 427 452 476 477 493 497 408 392 467 440 462 444 322 262 386 352 149 7 68 7 113 100 0 0 0 0 0 0 0 0 0 0 0 0 0 0 0 0 0 0 0 0 0 0 0 0 0 0 0 0 0 0 0 0 0 0 0 0 0 0 0 0 0 0 0 0 0 0 0 0 1 1 1
816 733 691 725 700 827 659 603 461 319 243 158 439 472 488 396 85 0 0 0 0 228 277 298 346 350 331 250 171 111 0 99 68 19 0 0 0 0 0 0 0 0 0 0 0 0 0 0 0 0 0 0 0 0 0 0 0 0 0 0 0 0 0 0 0 0 0 0 0 0 0 0 0 0 0 0 0 0 0 0 0 0 0 0 1
829 862 853 698 652 763 643 605 428 261 327 393 322 0 10 9 7 7 0 0 126 237 288 311 316 326 298 244 160 124 106 104 20 0 0 0 0 0 0 0 0 0 0 0 0 0 0 0 0 0 0 0 0 0 0 0 0 0 0 0 0 0 0 0 0 0 0 0 0 0 0 0 0 0 0 0 0 0 0 0 0 0 0 0 0
1076 892 735 639 794 724 569 534 344 244 80 24 8 0 0 0 0 0 249 240 269 280 309 318 291 256 230 219 190 173 159 141 55 76 66 72 41 0 0 0 0 0 0 0 0 0 0 0 0 0 0 0 0 0 0 0 0 0 0 0 0 0 0 0 0 0 0 0 0 0 0 0 0 0 0 0 0 0 0 0 0 0 0 0 0
723 424 398 558 755 968 564 492 184 102 30 20 7 1 154 247 322 324 322 312 314 360 364 343 316 249 152 138 128 134 100 86 0 0 6 118 72 0 0 0 0 0 0 0 0 0 0 0 0 0 0 0 0 0 0 0 0 0 0 0 0 0 0 0 0 0 0 0 0 0 0 0 0 0 0 0 0 0 0 0 0 0 0 0 0
575 581 795 645 587 772 819 666 510 286 238 307 386 416 410 411 414 414 398 418 400 411 365 329 261 234 210 179 132 38 0 0 0 0 106 139 94 0 0 0 0 0 0 0 0 0 0 0 0 0 0 0 0 0 0 0 0 0 0 0 0 0 0 0 0 0 0 0 0 0 0 0 0 0 0 0 0 0 0 0 0 0 0 0 0
595 487 611 1131 1193 1006 1068 1058 738 627 595 560 537 534 509 491 482 464 446 399 320 239 218 212 197 182 158 136 56 0 0 0 68 124 0 0 0 0 0 0 0 0 0 0 0 0 0 0 0 0 0 0 0 0 0 0 0 0 0 0 0 0 0 0 0 0 0 0 0 0 0 0 0 0 0 0 0 0 0 0 0 0 0 0 0
364 467 674 1049 1418 1358 1324 1124 690 620 579 580 582 540 547 534 466 342 269 246 193 179 184 171 185 171 134 0 0 0 0 0 0 0 0 0 0 0 0 0 0 0 0 0 0 0 0 0 0 0 0 0 0 0 0 0 0 0 0 0 0 0 0 0 0 0 0 0 0 0 0 0 0 0 0 0 0 0 0 0 0 0 0 0 0
604 440 404 728 1107 1220 1176 919 570 596 552 507 458 410 344 314 264 200 190 170 182 201 205 230 197 159 0 0 0 0 0 0 0 0 0 0 0 0 0 0 0 0 0 0 0 0 0 0 0 0 0 0 0 0 0 0 0 0 0 0 0 0 0 0 0 0 0 0 0 0 0 0 0 0 0 0 0 0 0 0 0 0 0 0 0
988 698 771 796 712 637 1098 1131 991 852 589 470 387 350 267 190 181 215 192 206 214 213 205 168 0 0 0 0 0 0 0 0 0 0 0 0 0 0 0 0 0 0 0 0 0 0 0 0 0 0 0 0 0 0 0 0 0 0 0 0 0 0 0 0 0 0 0 0 0 0 0 0 0 0 0 0 0 0 0 0 0 0 0 0 0
738 747 643 576 739 961 1038 934 924 855 667 526 456 454 367 226 247 212 220 228 182 111 2 0 3 0 0 0 0 0 0 0 0 0 0 0 0 0 0 0 0 0 0 0 0 0 0 0 0 0 0 0 0 0 0 0 0 0 0 0 0 0 0 0 0 0 0 0 0 0 0 0 0 0 0 0 0 0 0 0 0 0 0 0 0
878 944 742 723 800 932 800 738 760 740 838 682 692 608 429 261 230 234 258 192 79 41 2 0 0 0 0 0 0 0 0 0 0 0 0 1 0 0 0 0 0 0 0 0 0 0 0 0 0 0 0 0 0 0 0 0 0 0 0 0 0 0 0 0 0 0 0 0 0 0 0 0 0 0 0 0 0 0 0 0 0 0 0 0 0
873 898 933 838 828 760 750 754 914 923 889 745 467 401 360 305 287 223 20 14 111 76 3 0 0 0 0 0 0 0 0 0 1 1 0 0 1 0 0 0 0 0 0 0 0 0 0 0 0 0 0 0 0 0 0 0 0 0 0 0 0 0 0 0 0 0 0 0 0 0 0 0 0 0 0 0 0 0 0 0 0 0 0 0 0
903 910 898 846 796 665 606 644 700 773 612 388 374 382 393 392 184 25 18 14 11 20 24 9 0 0 0 0 0 0 3 6 3 0 0 0 0 0 0 0 0 0 0 0 0 0 0 0 0 0 0 0 0 0 0 0 0 0 0 0 0 0 0 0 0 0 0 0 0 0 0 0 0 0 0 0 0 0 0 0 0 0 0 0 0
951 833 681 574 457 290 189 273 332 433 299 303 357 292 311 322 69 44 144 38 67 51 17 12 1 0 0 4 6 4 6 8 6 1 0 1 2 1 0 0 0 0 0 0 0 0 0 0 0 0 0 0 0 0 0 0 0 0 0 0 0 0 0 0 0 0 0 0 0 0 0 0 0 0 0 0 0 0 0 0 0 0 0 0 0
548 389 406 362 227 218 286 416 468 510 460 320 234 159 118 27 14 22 49 67 79 67 68 27 8 12 11 12 15 14 9 5 4 1 0 2 2 0 0 0 0 0 0 0 0 0 0 0 0 0 0 0 0 0 0 0 0 0 0 0 0 0 0 0 0 0 0 0 0 0 0 0 0 0 0 0 0 0 0 0 0 0 0 0 0
499 389 315 282 244 245 290 311 366 332 270 217 116 28 17 82 55 10 20 6 12 32 14 8 8 7 2 6 0 12 12 5 4 8 9 8 2 0 0 0 0 0 0 0 0 0 0 0 0 0 0 0 0 0 0 0 0 0 0 0 0 0 0 0 0 0 0 0 0 0 0 0 0 0 0 0 0 0 0 0 0 0 0 0 0
393 324 261 228 258 288 290 244 107 105 110 81 82 40 29 26 20 38 34 48 42 26 10 11 13 8 9 10 13 12 7 13 16 15 16 12 4 0 0 0 0 0 0 0 0 0 0 0 0 0 0 0 0 0 0 0 0 0 0 0 0 0 0 0 0 0 0 0 0 0 0 0 0 0 0 0 0 0 0 0 0 0 0 0 0
269 218 185 200 198 214 216 211 165 58 26 12 12 17 20 28 32 32 31 22 19 23 17 21 22 18 18 13 12 15 12 21 28 32 24 13 8 2 0 0 0 0 0 0 0 0 0 0 0 0 0 0 0 0 0 0 0 0 0 0 0 0 0 0 0 0 0 0 0 0 0 0 0 0 0 0 0 0 0 0 0 0 0 0 0
127 111 88 71 78 91 134 112 66 41 31 22 13 14 18 24 24 25 19 16 20 30 34 32 33 30 29 26 28 24 24 32 31 36 39 29 17 8 2 0 0 0 0 0 0 0 0 0 0 0 0 0 0 0 0 0 0 0 0 0 0 0 0 0 0 0 0 0 0 0 0 0 0 0 0 0 0 0 0 0 0 0 0 0 0
148 102 71 56 54 89 92 73 40 51 68 40 27 22 25 24 23 25 28 25 19 17 16 19 20 20 29 30 34 32 36 42 35 35 41 44 32 20 10 4 2 0 0 0 0 0 0 0 0 0 0 0 0 0 0 0 0 0 0 0 0 0 0 0 0 0 0 0 0 0 0 0 0 0 0 0 0 0 0 0 0 0 0 0 0
Wind_Speed
13 13 16 18 22 25 27 29 32 33 36 37 37 38 39 40 40 39 39 39 40 40 42 44 45 42 41 42 41 38 37 36 34 32 30 29 29 28 27 29 29 28 27 26 27 28 28 29 29 29 31 33 34 36 38 40 42 41 40 40 39 40 43 nan nan nan nan nan nan nan nan nan nan nan nan nan nan nan nan 42 41 41 nan nan nan
14 15 17 19 23 25 28 29 33 35 38 39 39 39 39 39 40 41 42 42 42 42 44 45 44 43 43 44 42 37 35 33 31 30 29 30 28 29 29 29 29 28 28 27 26 27 28 28 29 30 32 33 34 36 37 38 39 39 40 40 38 39 42 42 nan nan nan nan nan nan nan nan nan nan nan nan nan nan nan 40 41 41 42 42 nan
15 16 19 22 25 26 28 31 34 37 39 40 41 40 39 38 40 42 42 44 43 45 45 45 43 43 46 46 39 32 29 28 28 28 29 29 28 27 28 28 28 28 27 25 24 25 27 28 29 30 33 34 35 36 37 37 39 39 39 39 38 38 40 43 43 42 nan nan nan nan nan nan nan nan 40 42 43 42 nan nan 41 42 42 40 nan
17 20 23 25 27 27 29 33 38 39 39 39 43 43 40 39 40 41 42 nan nan nan 41 42 42 42 45 47 37 25 23 25 27 29 29 29 27 25 26 28 28 27 25 24 24 25 26 28 30 31 33 34 35 37 37 38 40 40 39 39 40 39 40 42 46 nan nan nan nan nan 42 42 nan nan nan 41 nan nan 39 39 40 40 39 39 37
19 23 26 28 29 30 32 36 38 39 39 39 43 46 44 43 42 43 44 nan nan nan 37 nan 38 37 40 40 28 18 19 23 26 29 30 29 27 25 26 27 26 25 25 25 24 25 26 29 31 33 35 36 36 37 39 40 40 38 37 40 41 42 43 44 46 48 47 nan nan nan nan 41 40 39 40 42 40 38 37 37 38 38 37 37 37
22 25 27 29 30 32 34 37 39 41 40 41 45 46 44 43 44 43 43 nan nan nan 31 nan nan nan nan 29 18 15 21 24 26 28 29 30 30 29 29 27 26 26 26 25 24 26 28 30 32 34 36 36 35 36 38 38 38 38 39 40 42 43 44 44 47 48 48 47 45 nan nan 38 37 39 41 41 nan nan 35 36 36 36 35 35 nan
24 25 28 29 29 32 35 38 40 41 41 43 44 44 46 44 43 44 nan nan nan nan nan nan nan nan nan 19 15 20 23 24 27 29 30 30 32 34 32 29 26 26 25 24 24 26 29 31 33 35 35 35 36 38 38 37 38 38 39 41 42 43 44 45 47 47 46 45 43 42 39 38 36 36 39 37 35 34 nan nan nan nan 33 34 nan
25 27 28 27 29 33 36 39 41 42 44 45 43 44 47 45 43 45 42 nan nan nan nan nan nan nan nan 19 20 25 25 25 27 27 30 32 34 35 32 27 25 26 25 24 25 27 30 31 33 34 35 37 39 39 38 37 39 39 40 41 42 42 43 44 44 43 42 42 42 40 41 37 35 36 36 35 nan nan 34 nan nan 29 29 30 30
26 28 28 27 29 32 35 38 40 43 49 49 46 46 46 44 46 47 43 nan nan nan nan nan nan nan 22 23 24 27 29 29 29 28 30 33 34 32 29 26 26 25 24 24 27 31 33 33 33 34 37 40 40 39 37 39 40 39 40 41 41 41 41 41 40 40 39 39 40 42 40 36 34 33 33 35 34 32 31 29 26 26 28 27 26
27 28 28 28 30 33 37 40 43 47 50 48 51 54 49 44 46 46 nan nan 39 nan nan nan nan 21 23 26 27 29 30 31 29 nan nan 33 33 31 28 28 27 26 25 26 28 33 34 33 34 35 38 39 39 38 39 40 41 41 40 40 40 39 39 38 39 39 39 38 39 40 38 35 34 32 30 31 31 29 26 26 24 24 24 23 nan
29 30 29 29 32 34 38 42 45 50 50 48 50 51 55 53 45 45 51 nan 27 24 29 nan nan nan nan nan 29 30 31 31 nan nan nan nan 31 29 28 29 29 28 28 28 30 32 32 32 34 38 40 40 39 41 41 42 42 43 42 41 nan 38 37 37 38 39 39 39 39 39 38 34 31 29 27 26 26 25 24 24 22 23 23 nan nan
33 33 33 33 35 37 40 43 46 49 50 51 50 51 53 51 46 51 53 38 23 31 34 27 25 nan 24 nan nan 29 30 29 nan nan nan nan nan 28 28 29 30 30 29 31 34 32 28 30 35 38 38 38 38 40 44 45 nan nan nan nan nan nan nan 40 39 39 40 39 37 37 35 33 31 28 23 22 23 22 21 21 nan nan nan nan nan
36 37 37 38 40 41 43 46 48 50 51 51 50 48 51 52 46 51 46 27 24 36 nan 27 28 26 24 25 26 26 26 29 nan nan nan nan nan 28 28 30 31 30 32 36 35 29 28 32 35 37 37 42 41 41 42 42 45 nan nan nan nan nan nan nan nan 39 37 38 37 35 33 30 28 25 22 20 20 19 20 nan nan nan nan nan nan
38 39 39 41 44 47 49 50 51 51 51 51 49 49 51 52 47 42 34 27 31 35 31 29 29 26 24 25 23 22 22 26 nan nan nan nan nan nan 30 32 32 32 36 37 30 24 28 36 37 36 37 38 40 42 42 42 40 38 36 36 36 39 47 nan nan nan nan 39 36 32 30 28 24 21 18 18 17 nan nan nan nan nan nan nan nan
39 40 41 45 49 51 52 53 53 52 53 53 50 50 51 51 49 43 37 36 38 35 30 30 29 26 25 24 23 21 19 23 nan nan nan nan nan nan 32 32 33 35 39 35 26 25 35 42 42 39 39 40 42 44 43 40 37 36 35 35 36 37 39 39 40 41 42 40 36 32 28 24 20 17 17 nan nan nan nan nan nan nan nan nan nan
40 42 45 49 52 54 54 55 53 52 51 50 48 48 50 51 48 44 41 39 36 33 31 29 27 26 26 24 23 20 17 nan 25 25 28 32 nan 33 31 32 34 37 38 34 32 35 42 47 46 43 41 41 44 nan nan nan nan nan 36 36 37 38 37 42 nan nan nan 32 30 nan nan nan nan nan nan nan nan nan nan nan nan nan nan nan nan
43 46 48 51 54 56 57 56 53 51 49 49 48 49 51 50 46 43 41 39 37 36 33 30 27 26 26 25 23 20 18 25 28 29 33 34 nan 32 33 34 37 39 37 35 36 38 44 49 47 43 42 41 nan nan nan nan nan nan 36 36 37 36 nan 38 nan nan nan nan nan nan nan nan nan nan nan nan nan nan nan nan nan nan nan nan nan
47 49 51 54 57 59 58 55 51 48 48 48 48 49 50 46 44 43 42 40 nan nan 34 29 25 22 23 23 22 20 19 27 33 34 34 37 36 36 36 37 38 37 35 34 36 40 46 nan nan 43 41 41 nan nan nan nan nan nan nan nan nan nan 34 36 nan nan nan nan nan nan nan nan nan nan nan nan nan nan nan nan nan nan nan nan nan
50 52 54 56 58 59 55 51 48 46 46 47 49 51 49 45 43 43 42 41 nan 37 32 26 22 19 19 20 21 19 19 29 36 36 37 39 39 38 38 38 37 36 34 34 39 44 48 49 nan nan nan 46 nan nan nan nan nan nan nan nan nan nan 34 nan nan nan nan nan nan nan nan nan nan nan nan nan nan nan nan nan nan nan nan nan nan
52 55 57 58 57 55 51 48 46 44 45 46 48 49 47 44 43 42 41 40 40 36 31 26 20 17 17 21 21 21 23 30 35 36 38 39 39 39 41 42 38 36 37 39 43 46 47 47 nan nan nan nan nan nan nan nan nan nan nan nan nan 33 nan nan nan nan nan nan nan nan nan nan nan nan nan nan nan nan nan nan nan nan nan nan nan
55 58 60 58 54 52 48 46 45 44 44 46 47 46 44 42 42 40 40 40 39 35 30 24 18 15 19 22 23 25 30 37 38 37 37 37 38 41 nan 43 41 41 44 46 45 45 46 46 nan nan nan nan nan nan nan nan nan nan nan nan nan nan nan nan nan nan nan nan nan nan nan nan nan nan nan nan nan nan nan nan nan nan nan nan nan
58 60 58 54 50 48 46 45 44 43 44 44 43 41 40 40 39 39 39 39 37 31 26 22 19 18 23 26 27 34 42 41 35 39 40 40 44 45 47 nan 46 48 47 45 45 45 46 45 nan nan nan nan nan nan nan nan nan nan nan nan nan nan nan nan nan nan nan nan nan nan nan nan nan nan nan nan nan nan nan nan nan nan nan nan nan
59 57 52 47 45 45 44 45 43 41 42 42 40 39 39 39 39 39 39 36 29 24 23 24 22 22 23 29 37 42 37 35 40 43 43 43 47 47 48 nan 51 nan nan 44 45 44 nan nan nan nan nan nan nan nan nan nan nan nan nan nan nan nan nan nan nan nan nan nan nan nan nan nan nan nan nan nan nan nan nan nan nan nan nan nan nan
55 50 46 43 44 44 44 44 42 41 42 40 39 39 39 39 39 40 39 34 27 25 28 28 24 22 26 35 40 39 37 nan nan 44 45 48 51 51 51 49 nan nan nan nan nan nan nan nan nan nan nan nan nan nan nan nan nan nan nan nan nan nan nan nan nan nan nan nan nan nan nan nan nan nan nan nan nan nan nan nan nan nan nan nan nan
50 47 44 42 42 43 43 43 42 41 41 40 39 39 39 40 40 40 39 36 33 34 35 34 29 25 27 33 38 38 39 42 46 nan nan 52 52 nan nan nan nan nan nan nan nan nan nan nan nan nan nan nan nan nan nan nan nan nan nan nan nan nan nan nan nan nan nan nan nan nan nan nan nan nan nan nan nan nan nan nan nan nan nan nan nan
49 46 43 42 42 44 44 43 41 40 40 39 39 39 39 40 41 41 39 38 38 39 39 36 31 29 31 37 42 43 44 46 49 nan nan nan nan nan nan nan nan nan nan nan nan nan nan nan nan nan nan nan nan nan nan nan nan nan nan nan nan nan nan nan nan nan nan nan nan nan nan nan nan nan nan nan nan nan nan nan nan nan nan nan nan
46 45 44 43 44 43 43 42 40 39 38 38 38 38 39 40 40 41 40 40 42 41 40 37 33 32 35 40 43 46 48 48 nan nan nan nan nan nan nan nan nan nan nan nan nan nan nan nan nan nan nan nan nan nan nan nan nan nan nan nan nan nan nan nan nan nan nan nan nan nan nan nan nan nan nan nan nan nan nan nan nan nan nan nan nan
44 45 46 45 44 42 41 41 40 39 38 38 38 39 40 40 41 42 43 44 42 41 38 35 33 35 37 41 45 48 nan nan nan nan nan nan nan 47 nan nan nan nan nan nan nan nan nan nan nan nan nan nan nan nan nan nan nan nan nan nan nan nan nan nan nan nan nan nan nan nan nan nan nan nan nan nan nan nan nan nan nan nan nan nan nan
45 46 45 44 43 42 40 41 40 40 41 43 43 42 41 41 41 44 44 42 41 39 38 36 35 36 38 41 43 44 45 44 nan nan nan 47 46 44 nan nan nan nan nan nan nan nan nan nan nan nan nan nan nan nan nan nan nan nan nan nan nan nan nan nan nan nan nan nan nan nan nan nan nan nan nan nan nan nan nan nan nan nan nan nan nan
44 44 43 42 42 42 41 42 43 44 45 45 46 47 50 49 45 42 44 44 40 39 37 37 36 37 38 40 41 39 38 42 nan nan 50 48 46 nan nan nan nan nan nan nan nan nan nan nan nan nan nan nan nan nan nan nan nan nan nan nan nan nan nan nan nan nan nan nan nan nan nan nan nan nan nan nan nan nan nan nan nan nan nan nan nan
42 42 43 42 43 44 44 45 47 47 47 nan 46 47 48 51 54 51 46 44 42 41 39 34 32 34 36 39 43 nan nan nan 50 nan nan nan nan nan nan nan nan nan nan nan nan nan nan nan nan nan nan nan nan nan nan nan nan nan nan nan nan nan nan nan nan nan nan nan nan nan nan nan nan nan nan nan nan nan nan nan nan nan nan nan nan
43 44 44 46 48 46 45 47 49 49 48 48 48 49 50 51 nan nan nan nan nan 46 45 44 41 41 42 43 43 42 nan nan nan nan nan nan nan nan nan nan nan nan nan nan nan nan nan nan nan nan nan nan nan nan nan nan nan nan nan nan nan nan nan nan nan nan nan nan nan nan nan nan nan nan nan nan nan nan nan nan nan nan nan nan nan
44 46 48 49 49 48 48 49 49 49 50 50 50 nan nan nan nan nan nan nan 50 49 47 46 46 46 47 45 43 45 48 48 nan nan nan nan nan nan nan nan nan nan nan nan nan nan nan nan nan nan nan nan nan nan nan nan nan nan nan nan nan nan nan nan nan nan nan nan nan nan nan nan nan nan nan nan nan nan nan nan nan nan nan nan nan
45 47 49 50 50 49 49 49 50 50 nan nan nan nan nan nan nan nan 51 49 47 46 45 44 44 46 46 48 51 52 51 49 nan nan nan nan nan nan nan nan nan nan nan nan nan nan nan nan nan nan nan nan nan nan nan nan nan nan nan nan nan nan nan nan nan nan nan nan nan nan nan nan nan nan nan nan nan nan nan nan nan nan nan nan nan
48 50 51 50 49 50 50 51 51 51 nan nan nan nan 48 47 48 48 46 45 43 42 42 42 42 42 45 48 49 50 49 nan nan nan nan 53 nan nan nan nan nan nan nan nan nan nan nan nan nan nan nan nan nan nan nan nan nan nan nan nan nan nan nan nan nan nan nan nan nan nan nan nan nan nan nan nan nan nan nan nan nan nan nan nan nan
50 50 50 49 48 48 49 50 49 49 49 49 48 47 46 44 43 41 41 41 42 43 43 44 45 45 49 50 49 nan nan nan nan nan 53 52 nan nan nan nan nan nan nan nan nan nan nan nan nan nan nan nan nan nan nan nan nan nan nan nan nan nan nan nan nan nan nan nan nan nan nan nan nan nan nan nan nan nan nan nan nan nan nan nan nan
47 45 44 44 45 46 47 48 48 48 48 47 45 42 41 40 40 40 41 42 43 44 46 47 47 46 46 46 nan nan nan nan nan 50 nan nan nan nan nan nan nan nan nan nan nan nan nan nan nan nan nan nan nan nan nan nan nan nan nan nan nan nan nan nan nan nan nan nan nan nan nan nan nan nan nan nan nan nan nan nan nan nan nan nan nan
45 42 41 41 42 44 45 45 47 49 45 42 40 40 42 42 42 43 44 45 46 47 47 46 46 46 45 nan nan nan nan nan nan nan nan nan nan nan nan nan nan nan nan nan nan nan nan nan nan nan nan nan nan nan nan nan nan nan nan nan nan nan nan nan nan nan nan nan nan nan nan nan nan nan nan nan nan nan nan nan nan nan nan nan nan
46 46 45 44 41 41 43 45 46 45 45 45 45 45 46 45 45 46 47 47 47 46 46 45 44 43 nan nan nan nan nan nan nan nan nan nan nan nan nan nan nan nan nan nan nan nan nan nan nan nan nan nan nan nan nan nan nan nan nan nan nan nan nan nan nan nan nan nan nan nan nan nan nan nan nan nan nan nan nan nan nan nan nan nan nan
47 46 45 45 43 45 45 46 47 48 48 49 48 47 46 46 47 48 47 46 45 45 44 44 nan nan nan nan nan nan nan nan nan nan nan nan nan nan nan nan nan nan nan nan nan nan nan nan nan nan nan nan nan nan nan nan nan nan nan nan nan nan nan nan nan nan nan nan nan nan nan nan nan nan nan nan nan nan nan nan nan nan nan nan nan
49 47 46 46 47 49 50 50 48 46 45 45 46 46 46 47 47 45 44 44 44 44 nan nan nan nan nan nan nan nan nan nan nan nan nan nan nan nan nan nan nan nan nan nan nan nan nan nan nan nan nan nan nan nan nan nan nan nan nan nan nan nan nan nan nan nan nan nan nan nan nan nan nan nan nan nan nan nan nan nan nan nan nan nan nan
50 50 50 49 48 49 50 49 47 45 45 45 46 46 46 46 44 43 43 43 nan nan nan nan nan nan nan nan nan nan nan nan nan nan nan nan nan nan nan nan nan nan nan nan nan nan nan nan nan nan nan nan nan nan nan nan nan nan nan nan nan nan nan nan nan nan nan nan nan nan nan nan nan nan nan nan nan nan nan nan nan nan nan nan nan
51 50 50 49 48 48 48 49 48 48 47 47 47 46 46 45 43 42 nan nan 39 nan nan nan nan nan nan nan nan nan nan nan nan nan nan nan nan nan nan nan nan nan nan nan nan nan nan nan nan nan nan nan nan nan nan nan nan nan nan nan nan nan nan nan nan nan nan nan nan nan nan nan nan nan nan nan nan nan nan nan nan nan nan nan nan
50 49 48 46 45 45 46 48 48 46 44 44 44 43 43 42 41 nan nan nan nan nan nan nan nan nan nan nan nan nan nan nan nan nan nan nan nan nan nan nan nan nan nan nan nan nan nan nan nan nan nan nan nan nan nan nan nan nan nan nan nan nan nan nan nan nan nan nan nan nan nan nan nan nan nan nan nan nan nan nan nan nan nan nan nan
48 46 44 41 40 40 42 42 42 40 40 40 41 41 41 39 nan nan 34 nan nan nan nan nan nan nan nan nan nan nan nan nan nan nan nan nan nan nan nan nan nan nan nan nan nan nan nan nan nan nan nan nan nan nan nan nan nan nan nan nan nan nan nan nan nan nan nan nan nan nan nan nan nan nan nan nan nan nan nan nan nan nan nan nan nan
46 44 43 43 42 41 39 38 36 35 35 36 36 35 35 nan nan nan nan nan nan nan nan nan nan nan nan nan nan nan nan nan nan nan nan nan nan nan nan nan nan nan nan nan nan nan nan nan nan nan nan nan nan nan nan nan nan nan nan nan nan nan nan nan nan nan nan nan nan nan nan nan nan nan nan nan nan nan nan nan nan nan nan nan nan
42 41 41 42 39 36 33 32 31 31 31 30 29 nan nan nan nan nan nan nan nan nan nan nan nan nan nan nan nan nan nan nan nan nan nan nan nan nan nan nan nan nan nan nan nan nan nan nan nan nan nan nan nan nan nan nan nan nan nan nan nan nan nan nan nan nan nan nan nan nan nan nan nan nan nan nan nan nan nan nan nan nan nan nan nan
37 37 38 38 36 34 34 33 31 29 27 nan nan nan nan nan nan nan nan nan nan nan nan nan nan nan nan nan nan nan nan nan nan nan nan nan nan nan nan nan nan nan nan nan nan nan nan nan nan nan nan nan nan nan nan nan nan nan nan nan nan nan nan nan nan nan nan nan nan nan nan nan nan nan nan nan nan nan nan nan nan nan nan nan nan
31 32 34 36 38 40 40 38 33 nan nan nan nan nan nan nan nan nan nan nan nan nan nan nan nan nan nan nan nan nan nan nan nan nan nan nan nan nan nan nan nan nan nan nan nan nan nan nan nan nan nan nan nan nan nan nan nan nan nan nan nan nan nan nan nan nan nan nan nan nan nan nan nan nan nan nan nan nan nan nan nan nan nan nan nan
26 27 nan nan nan nan 36 34 nan nan nan nan nan nan nan nan nan nan nan nan nan nan nan nan nan nan nan nan nan nan nan nan nan nan nan nan nan nan nan nan nan nan nan nan nan nan nan nan nan nan nan nan nan nan nan nan nan nan nan nan nan nan nan nan nan nan nan nan nan nan nan nan nan nan nan nan nan nan nan nan nan nan nan nan nan
25 26 nan nan nan nan nan nan nan nan nan nan nan nan nan nan nan nan nan nan nan nan nan nan nan nan nan nan nan nan nan nan nan nan nan nan nan nan nan nan nan nan nan nan nan nan nan nan nan nan nan nan nan nan nan nan nan nan nan nan nan nan nan nan nan nan nan nan nan nan nan nan nan nan nan nan nan nan nan nan nan nan nan nan nan
Wind_Direction
325 333 327 326 323 326 329 328 328 323 322 324 325 325 322 321 321 318 313 314 312 309 305 305 305 304 300 298 300 300 303 304 296 290 293 297 297 301 302 300 302 304 306 310 311 312 313 314 313 312 312 312 310 310 311 313 314 315 315 314 313 311 310 nan nan nan nan nan nan nan nan nan nan nan nan nan nan nan nan 290 288 286 nan nan nan
333 338 326 318 327 331 331 328 326 323 324 324 326 324 319 319 318 314 317 315 313 311 310 307 308 307 304 301 298 298 302 302 296 291 293 296 298 297 300 300 301 304 305 307 310 309 311 313 312 312 312 313 311 311 310 311 313 314 313 312 311 311 310 309 nan nan nan nan nan nan nan nan nan nan nan nan nan nan nan 288 287 287 285 281 nan
340 327 318 318 330 331 327 328 328 327 327 324 325 320 319 318 315 316 315 313 312 312 314 313 310 308 305 303 301 302 301 297 293 293 294 295 296 298 299 300 301 303 304 306 309 309 311 312 311 310 310 312 312 310 309 310 310 312 312 310 311 310 309 310 308 307 nan nan nan nan nan nan nan nan 291 290 290 289 nan nan 286 284 283 280 nan
338 326 321 326 331 327 327 328 330 331 330 325 323 319 316 313 312 313 310 nan nan nan 314 311 311 310 308 307 310 305 298 294 293 293 293 291 292 297 300 300 300 300 302 304 308 310 312 310 310 311 311 311 309 307 306 307 309 310 311 310 310 311 309 309 310 nan nan nan nan nan 296 295 nan nan nan 287 nan nan 288 287 286 283 279 275 273
335 327 326 328 327 325 327 327 331 332 331 325 322 314 313 312 313 314 314 nan nan nan 317 nan 314 311 311 314 313 301 297 302 300 295 291 287 289 295 301 300 298 299 301 304 307 309 309 310 310 310 308 307 304 304 305 309 309 309 310 310 310 310 309 309 308 306 304 nan nan nan nan 297 294 290 288 286 285 287 286 283 280 276 273 270 268
337 329 327 327 325 328 329 330 334 334 328 322 318 315 314 314 315 315 319 nan nan nan 321 nan nan nan nan 319 310 295 296 303 303 297 292 286 283 289 298 301 298 296 298 301 304 305 305 308 309 307 306 304 303 304 306 309 309 310 313 313 312 311 311 310 307 305 304 301 300 nan nan 296 291 288 286 285 nan nan 280 277 273 271 267 263 nan
335 331 329 330 327 333 333 333 333 332 323 315 311 311 313 315 318 318 nan nan nan nan nan nan nan nan nan 310 295 291 297 303 303 299 295 289 281 284 294 298 293 290 294 299 300 302 304 306 307 306 305 304 305 307 308 309 310 313 314 313 313 312 311 308 305 303 302 302 302 302 299 297 292 288 286 285 285 284 nan nan nan nan 265 263 nan
336 334 332 330 331 336 336 332 330 325 315 307 314 316 312 313 315 313 310 nan nan nan nan nan nan nan nan 299 288 290 298 303 305 303 300 293 285 287 293 292 289 289 293 297 301 302 304 306 306 305 304 305 307 308 308 309 310 312 312 311 312 310 307 304 303 302 303 303 303 300 300 296 294 292 289 287 nan nan 278 nan nan 260 258 260 260
340 339 334 332 333 332 328 326 326 318 316 322 321 309 309 312 315 314 308 nan nan nan nan nan nan nan 294 291 289 292 298 301 301 302 301 297 293 295 295 291 289 290 293 299 302 304 304 305 305 304 304 306 308 307 307 306 308 310 310 309 308 306 304 302 303 303 304 304 303 302 301 300 297 291 286 284 280 275 273 271 268 265 263 260 260
332 332 333 333 327 324 325 324 324 322 323 326 322 316 313 315 312 313 nan nan 309 nan nan nan nan 307 295 293 293 295 298 295 299 nan nan 297 297 296 292 290 291 292 295 299 303 305 305 304 303 306 304 306 308 310 313 315 316 315 312 309 308 306 305 303 304 305 306 304 303 302 303 303 300 294 286 280 278 278 275 271 268 262 258 260 nan
322 324 327 325 322 322 325 328 326 327 327 323 316 315 319 315 312 311 312 nan 306 324 328 nan nan nan nan nan 299 300 297 293 nan nan nan nan 300 297 296 294 294 295 295 298 304 306 303 302 303 303 305 307 310 314 315 318 319 320 320 319 nan 311 308 308 308 308 307 305 303 305 307 307 303 294 286 279 278 276 274 272 268 265 263 nan nan
321 321 322 319 321 324 326 327 328 328 325 323 319 313 316 316 316 313 306 297 306 331 333 324 322 nan 301 nan nan 301 297 297 nan nan nan nan nan 300 296 293 291 292 292 297 304 303 300 302 304 301 301 303 302 306 314 319 nan nan nan nan nan nan nan 313 309 308 308 306 306 306 306 304 297 293 287 281 278 274 273 273 nan nan nan nan nan
317 317 317 320 323 324 323 325 325 327 324 322 315 310 312 315 317 318 315 305 313 334 nan 325 321 313 303 301 302 302 300 300 nan nan nan nan nan 303 290 288 289 291 295 300 301 296 297 305 308 305 303 305 307 310 311 313 317 nan nan nan nan nan nan nan nan 314 306 304 306 308 307 300 296 294 288 284 278 275 276 nan nan nan nan nan nan
317 315 313 318 321 322 322 322 322 324 322 318 314 314 314 318 320 315 310 312 327 335 333 326 317 312 304 298 298 302 303 300 nan nan nan nan nan nan 288 288 291 296 302 301 293 288 303 313 315 312 308 305 306 310 311 312 310 310 310 308 307 309 313 nan nan nan nan 312 310 308 304 302 302 296 292 291 286 nan nan nan nan nan nan nan nan
316 313 312 313 315 318 319 319 319 319 318 319 315 316 314 319 319 316 317 322 328 333 330 323 317 311 303 299 304 308 302 303 nan nan nan nan nan nan 289 291 293 298 302 296 282 286 305 314 317 315 308 305 307 305 308 309 309 308 308 308 306 303 300 301 303 305 308 311 312 311 308 307 305 299 298 nan nan nan nan nan nan nan nan nan nan
314 311 309 310 313 315 317 318 321 315 315 313 310 307 313 319 320 320 322 324 327 329 327 322 318 311 303 302 308 310 300 nan 305 300 293 292 nan 289 292 294 297 300 300 291 278 284 301 311 314 311 306 306 304 nan nan nan nan nan 309 306 302 300 298 296 nan nan nan 304 304 nan nan nan nan nan nan nan nan nan nan nan nan nan nan nan nan
311 309 309 310 312 313 315 319 317 313 314 313 311 310 313 317 320 320 322 325 329 332 331 327 319 310 304 305 311 304 293 296 299 294 293 293 nan 291 298 299 300 302 302 293 282 287 299 307 309 306 303 306 nan nan nan nan nan nan 305 302 300 298 nan 298 nan nan nan nan nan nan nan nan nan nan nan nan nan nan nan nan nan nan nan nan nan
307 307 309 310 312 312 312 313 312 313 312 314 311 308 311 315 318 318 321 326 nan nan 330 327 321 309 306 312 313 306 298 296 296 293 293 292 294 298 301 303 305 305 303 296 290 294 301 nan nan 306 306 307 nan nan nan nan nan nan nan nan nan nan 299 300 nan nan nan nan nan nan nan nan nan nan nan nan nan nan nan nan nan nan nan nan nan
305 307 307 309 311 311 311 311 311 312 312 311 309 310 314 317 317 315 320 325 nan 327 327 325 317 310 315 323 318 312 298 290 293 293 292 292 298 301 305 306 310 308 303 298 297 299 302 306 nan nan nan 303 nan nan nan nan nan nan nan nan nan nan 299 nan nan nan nan nan nan nan nan nan nan nan nan nan nan nan nan nan nan nan nan nan nan
304 305 306 307 309 309 308 309 309 310 309 307 304 307 310 313 315 316 322 327 328 329 328 323 317 314 322 327 318 306 296 288 291 294 292 294 306 307 303 302 304 306 305 304 303 302 303 305 nan nan nan nan nan nan nan nan nan nan nan nan nan 302 nan nan nan nan nan nan nan nan nan nan nan nan nan nan nan nan nan nan nan nan nan nan nan
304 305 305 305 306 307 306 307 307 305 304 301 301 307 309 311 312 317 324 327 327 327 327 319 310 306 314 318 312 306 298 292 290 296 294 301 308 305 nan 303 307 309 307 305 304 303 303 303 nan nan nan nan nan nan nan nan nan nan nan nan nan nan nan nan nan nan nan nan nan nan nan nan nan nan nan nan nan nan nan nan nan nan nan nan nan
304 305 306 304 304 305 304 302 304 303 300 301 304 306 307 309 312 319 323 325 324 324 321 318 310 298 296 301 304 302 295 300 299 295 297 302 304 306 301 nan 306 305 306 305 302 302 302 303 nan nan nan nan nan nan nan nan nan nan nan nan nan nan nan nan nan nan nan nan nan nan nan nan nan nan nan nan nan nan nan nan nan nan nan nan nan
304 305 305 305 305 305 305 306 307 303 301 305 307 307 305 307 312 317 322 325 322 316 319 320 308 292 287 291 296 299 301 297 289 295 301 304 304 304 305 nan 298 nan nan 302 301 302 nan nan nan nan nan nan nan nan nan nan nan nan nan nan nan nan nan nan nan nan nan nan nan nan nan nan nan nan nan nan nan nan nan nan nan nan nan nan nan
303 304 303 304 304 305 305 306 308 304 303 304 306 307 309 311 314 317 320 319 313 310 311 314 308 295 290 292 297 301 295 nan nan 297 301 301 301 301 301 300 nan nan nan nan nan nan nan nan nan nan nan nan nan nan nan nan nan nan nan nan nan nan nan nan nan nan nan nan nan nan nan nan nan nan nan nan nan nan nan nan nan nan nan nan nan
301 301 300 301 302 302 303 304 306 304 305 306 306 306 311 311 313 314 311 312 309 306 308 310 307 299 294 294 296 296 293 289 292 nan nan 300 300 nan nan nan nan nan nan nan nan nan nan nan nan nan nan nan nan nan nan nan nan nan nan nan nan nan nan nan nan nan nan nan nan nan nan nan nan nan nan nan nan nan nan nan nan nan nan nan nan
297 297 297 299 301 301 302 303 305 304 304 304 305 303 308 311 313 311 309 308 307 305 307 308 305 299 293 289 290 293 293 292 294 nan nan nan nan nan nan nan nan nan nan nan nan nan nan nan nan nan nan nan nan nan nan nan nan nan nan nan nan nan nan nan nan nan nan nan nan nan nan nan nan nan nan nan nan nan nan nan nan nan nan nan nan
293 294 296 297 298 299 299 299 299 301 303 303 303 305 306 308 310 310 310 306 302 304 304 303 297 292 291 291 294 297 296 296 nan nan nan nan nan nan nan nan nan nan nan nan nan nan nan nan nan nan nan nan nan nan nan nan nan nan nan nan nan nan nan nan nan nan nan nan nan nan nan nan nan nan nan nan nan nan nan nan nan nan nan nan nan
292 293 296 297 297 297 297 299 300 297 299 301 302 303 304 306 307 307 305 302 301 302 302 298 293 291 291 293 294 295 nan nan nan nan nan nan nan 296 nan nan nan nan nan nan nan nan nan nan nan nan nan nan nan nan nan nan nan nan nan nan nan nan nan nan nan nan nan nan nan nan nan nan nan nan nan nan nan nan nan nan nan nan nan nan nan
291 292 294 295 295 294 295 295 296 296 293 286 282 282 286 291 294 297 292 297 300 301 300 295 294 292 292 291 292 293 293 295 nan nan nan 293 294 297 nan nan nan nan nan nan nan nan nan nan nan nan nan nan nan nan nan nan nan nan nan nan nan nan nan nan nan nan nan nan nan nan nan nan nan nan nan nan nan nan nan nan nan nan nan nan nan
291 291 292 293 292 293 292 293 292 289 289 288 289 287 283 284 285 291 295 289 284 282 283 290 286 289 292 290 286 290 290 286 nan nan 290 290 286 nan nan nan nan nan nan nan nan nan nan nan nan nan nan nan nan nan nan nan nan nan nan nan nan nan nan nan nan nan nan nan nan nan nan nan nan nan nan nan nan nan nan nan nan nan nan nan nan
290 290 290 290 290 291 291 291 287 287 288 nan 292 293 294 289 282 281 284 286 286 284 285 284 280 277 286 292 284 nan nan nan 290 nan nan nan nan nan nan nan nan nan nan nan nan nan nan nan nan nan nan nan nan nan nan nan nan nan nan nan nan nan nan nan nan nan nan nan nan nan nan nan nan nan nan nan nan nan nan nan nan nan nan nan nan
289 288 289 287 286 289 289 289 288 289 289 290 292 294 293 293 nan nan nan nan nan 284 285 285 287 289 287 288 291 286 nan nan nan nan nan nan nan nan nan nan nan nan nan nan nan nan nan nan nan nan nan nan nan nan nan nan nan nan nan nan nan nan nan nan nan nan nan nan nan nan nan nan nan nan nan nan nan nan nan nan nan nan nan nan nan
287 285 285 284 286 286 287 287 288 289 290 292 292 nan nan nan nan nan nan nan 284 283 282 283 286 288 287 284 284 293 298 301 nan nan nan nan nan nan nan nan nan nan nan nan nan nan nan nan nan nan nan nan nan nan nan nan nan nan nan nan nan nan nan nan nan nan nan nan nan nan nan nan nan nan nan nan nan nan nan nan nan nan nan nan nan
282 281 283 285 285 286 287 288 289 290 nan nan nan nan nan nan nan nan 296 294 290 285 281 278 280 282 281 286 291 294 299 299 nan nan nan nan nan nan nan nan nan nan nan nan nan nan nan nan nan nan nan nan nan nan nan nan nan nan nan nan nan nan nan nan nan nan nan nan nan nan nan nan nan nan nan nan nan nan nan nan nan nan nan nan nan
279 278 280 282 284 285 286 288 290 291 nan nan nan nan 298 298 297 297 297 296 295 293 292 287 279 276 286 289 290 294 295 nan nan nan nan 294 nan nan nan nan nan nan nan nan nan nan nan nan nan nan nan nan nan nan nan nan nan nan nan nan nan nan nan nan nan nan nan nan nan nan nan nan nan nan nan nan nan nan nan nan nan nan nan nan nan
281 283 284 286 286 287 289 291 292 293 294 295 295 295 295 296 296 295 293 290 290 291 291 289 290 287 287 289 292 nan nan nan nan nan 298 299 nan nan nan nan nan nan nan nan nan nan nan nan nan nan nan nan nan nan nan nan nan nan nan nan nan nan nan nan nan nan nan nan nan nan nan nan nan nan nan nan nan nan nan nan nan nan nan nan nan
282 286 289 291 292 292 292 292 293 294 294 293 293 294 294 293 293 291 289 288 290 292 293 293 293 294 296 297 nan nan nan nan nan 293 nan nan nan nan nan nan nan nan nan nan nan nan nan nan nan nan nan nan nan nan nan nan nan nan nan nan nan nan nan nan nan nan nan nan nan nan nan nan nan nan nan nan nan nan nan nan nan nan nan nan nan
284 285 286 290 291 290 290 292 292 293 292 292 292 293 293 291 289 286 286 288 292 294 295 297 299 300 301 nan nan nan nan nan nan nan nan nan nan nan nan nan nan nan nan nan nan nan nan nan nan nan nan nan nan nan nan nan nan nan nan nan nan nan nan nan nan nan nan nan nan nan nan nan nan nan nan nan nan nan nan nan nan nan nan nan nan
287 289 288 287 289 290 290 292 293 292 289 289 290 290 289 287 285 284 286 290 293 295 298 299 301 301 nan nan nan nan nan nan nan nan nan nan nan nan nan nan nan nan nan nan nan nan nan nan nan nan nan nan nan nan nan nan nan nan nan nan nan nan nan nan nan nan nan nan nan nan nan nan nan nan nan nan nan nan nan nan nan nan nan nan nan
286 285 288 292 290 289 289 290 289 288 287 286 286 286 285 283 284 285 289 291 295 297 299 300 nan nan nan nan nan nan nan nan nan nan nan nan nan nan nan nan nan nan nan nan nan nan nan nan nan nan nan nan nan nan nan nan nan nan nan nan nan nan nan nan nan nan nan nan nan nan nan nan nan nan nan nan nan nan nan nan nan nan nan nan nan
288 291 291 290 288 288 286 287 286 285 283 281 282 284 284 285 286 288 290 292 294 297 nan nan nan nan nan nan nan nan nan nan nan nan nan nan nan nan nan nan nan nan nan nan nan nan nan nan nan nan nan nan nan nan nan nan nan nan nan nan nan nan nan nan nan nan nan nan nan nan nan nan nan nan nan nan nan nan nan nan nan nan nan nan nan
289 288 288 287 287 284 285 286 284 280 276 277 281 284 286 287 287 288 289 291 nan nan nan nan nan nan nan nan nan nan nan nan nan nan nan nan nan nan nan nan nan nan nan nan nan nan nan nan nan nan nan nan nan nan nan nan nan nan nan nan nan nan nan nan nan nan nan nan nan nan nan nan nan nan nan nan nan nan nan nan nan nan nan nan nan
285 285 285 284 284 284 285 283 280 277 277 280 283 285 285 285 285 286 nan nan 290 nan nan nan nan nan nan nan nan nan nan nan nan nan nan nan nan nan nan nan nan nan nan nan nan nan nan nan nan nan nan nan nan nan nan nan nan nan nan nan nan nan nan nan nan nan nan nan nan nan nan nan nan nan nan nan nan nan nan nan nan nan nan nan nan
285 285 285 284 282 283 282 281 278 279 281 284 284 282 282 282 284 nan nan nan nan nan nan nan nan nan nan nan nan nan nan nan nan nan nan nan nan nan nan nan nan nan nan nan nan nan nan nan nan nan nan nan nan nan nan nan nan nan nan nan nan nan nan nan nan nan nan nan nan nan nan nan nan nan nan nan nan nan nan nan nan nan nan nan nan
284 284 283 281 281 281 279 278 280 284 286 284 281 280 281 283 nan nan 289 nan nan nan nan nan nan nan nan nan nan nan nan nan nan nan nan nan nan nan nan nan nan nan nan nan nan nan nan nan nan nan nan nan nan nan nan nan nan nan nan nan nan nan nan nan nan nan nan nan nan nan nan nan nan nan nan nan nan nan nan nan nan nan nan nan nan
282 280 279 280 283 281 279 278 283 286 286 284 284 284 283 nan nan nan nan nan nan nan nan nan nan nan nan nan nan nan nan nan nan nan nan nan nan nan nan nan nan nan nan nan nan nan nan nan nan nan nan nan nan nan nan nan nan nan nan nan nan nan nan nan nan nan nan nan nan nan nan nan nan nan nan nan nan nan nan nan nan nan nan nan nan
279 280 280 280 279 279 280 285 290 289 285 283 282 nan nan nan nan nan nan nan nan nan nan nan nan nan nan nan nan nan nan nan nan nan nan nan nan nan nan nan nan nan nan nan nan nan nan nan nan nan nan nan nan nan nan nan nan nan nan nan nan nan nan nan nan nan nan nan nan nan nan nan nan nan nan nan nan nan nan nan nan nan nan nan nan
278 278 276 276 277 282 290 297 298 294 289 nan nan nan nan nan nan nan nan nan nan nan nan nan nan nan nan nan nan nan nan nan nan nan nan nan nan nan nan nan nan nan nan nan nan nan nan nan nan nan nan nan nan nan nan nan nan nan nan nan nan nan nan nan nan nan nan nan nan nan nan nan nan nan nan nan nan nan nan nan nan nan nan nan nan
282 280 279 279 279 283 290 295 296 nan nan nan nan nan nan nan nan nan nan nan nan nan nan nan nan nan nan nan nan nan nan nan nan nan nan nan nan nan nan nan nan nan nan nan nan nan nan nan nan nan nan nan nan nan nan nan nan nan nan nan nan nan nan nan nan nan nan nan nan nan nan nan nan nan nan nan nan nan nan nan nan nan nan nan nan
287 287 nan nan nan nan 285 286 nan nan nan nan nan nan nan nan nan nan nan nan nan nan nan nan nan nan nan nan nan nan nan nan nan nan nan nan nan nan nan nan nan nan nan nan nan nan nan nan nan nan nan nan nan nan nan nan nan nan nan nan nan nan nan nan nan nan nan nan nan nan nan nan nan nan nan nan nan nan nan nan nan nan nan nan nan
287 290 nan nan nan nan nan nan nan nan nan nan nan nan nan nan nan nan nan nan nan nan nan nan nan nan nan nan nan nan nan nan nan nan nan nan nan nan nan nan nan nan nan nan nan nan nan nan nan nan nan nan nan nan nan nan nan nan nan nan nan nan nan nan nan nan nan nan nan nan nan nan nan nan nan nan nan nan nan nan nan nan nan nan nan